Location: Auckland
(36.8670°S, 174.7670°E)
Time: 20:45:15
(UTC+12:00)

Vanguard 1 - Visible Passes

Search period start: 10 August 2020 00:00
Search period end: 20 August 2020 00:00
Orbit: 649 x 3833 km, 34.3° (Epoch: 09 August)

Date Brightness Start Highest point End Pass type
(mag) Time Alt. Az. Time Alt. Az. Time Alt. Az.
10 Aug 12.0 03:22:58 34° NE 03:22:58 34° NE 03:29:37 10° ENE visible
10 Aug 12.0 05:35:41 21° WNW 05:40:33 32° NNW 05:53:09 10° NNE visible
11 Aug 11.8 03:42:53 37° NNE 03:42:53 37° NNE 03:50:39 10° NE visible
11 Aug 12.3 05:55:36 14° WNW 06:01:44 24° NNW 06:12:47 10° NNE visible
12 Aug 11.7 04:02:49 36° N 04:02:49 36° N 04:11:25 10° NE visible
12 Aug 12.6 06:16:38 10° WNW 06:22:57 18° NNW 06:31:35 10° N visible
13 Aug 11.8 04:22:46 31° N 04:22:46 31° N 04:31:49 10° NE visible
13 Aug 12.9 06:40:37 10° NW 06:44:13 12° NNW 06:48:24 10° NNW visible
14 Aug 12.0 04:42:44 24° NNW 04:42:51 24° NNW 04:51:46 10° NNE visible
14 Aug 11.8 19:40:30 10° N 19:42:28 12° NNE 19:42:28 12° NNE visible
15 Aug 13.0 02:50:01 12° NE 02:50:01 12° NE 02:50:44 10° NE visible
15 Aug 12.3 05:02:44 17° NW 05:03:59 18° NNW 05:11:00 10° N visible
15 Aug 11.6 19:59:31 10° NNW 20:02:29 17° N 20:02:29 17° N visible
16 Aug 12.9 03:10:00 13° NE 03:10:00 13° NE 03:11:17 10° NE visible
16 Aug 12.6 05:22:44 11° NW 05:25:10 12° NNW 05:28:38 10° N visible
16 Aug 11.5 20:19:28 10° NW 20:22:29 21° NNW 20:22:29 21° NNW visible
17 Aug 12.8 03:30:01 13° NNE 03:30:01 13° NNE 03:31:27 10° NNE visible
17 Aug 12.0 18:21:50 10° N 18:24:55 12° NNE 18:27:33 10° NE visible
17 Aug 11.7 20:39:53 10° NW 20:42:29 21° NNW 20:42:29 21° NNW visible
18 Aug 12.8 03:50:02 12° N 03:50:02 12° N 03:50:59 10° NNE visible
18 Aug 11.7 18:40:28 10° NNW 18:45:57 19° NNE 18:49:45 11° ENE visible
18 Aug 11.9 21:00:34 10° WNW 21:02:28 18° NW 21:02:28 18° NW visible
19 Aug 11.2 19:00:13 10° NNW 19:06:56 26° NNE 19:09:43 18° ENE visible
19 Aug 12.3 21:21:24 10° WNW 21:22:27 14° WNW 21:22:27 14° WNW visible
